Wind_Speed
26 26 27 29 30 31 31 32 34 35 36 38 39 39 40 41 43 44 45 46 47 46 47 47 47 46 46 46 46 46 46 46 46 46 46 45 45 44 44 43 41 39 39 38
25 25 25 27 28 30 31 32 33 34 35 38 39 39 39 39 42 43 43 45 46 47 47 48 48 47 46 46 46 46 46 46 47 47 46 46 46 46 45 44 44 43 42 41
24 23 23 24 26 28 30 31 32 33 34 36 38 39 39 40 41 43 42 44 45 46 47 48 48 48 47 48 47 48 47 47 47 47 47 46 46 46 46 45 45 45 44 43
22 21 21 22 23 24 26 28 29 31 32 34 35 37 37 39 40 41 42 43 44 45 46 47 47 48 48 48 48 48 48 47 47 47 47 46 46 46 46 45 46 46 45 44
20 20 20 20 20 22 23 24 26 28 31 33 33 34 34 36 38 40 41 42 42 43 45 46 47 48 48 48 49 49 49 48 47 47 47 47 46 46 46 46 46 46 46 45
20 19 18 18 18 19 21 21 22 25 28 29 29 32 33 34 35 36 39 40 41 42 43 45 46 47 48 48 49 49 49 49 48 48 48 48 47 46 46 47 47 47 47 47
20 19 17 17 17 18 19 19 20 22 24 26 26 28 31 30 32 34 37 38 39 41 42 43 44 46 47 47 48 49 49 49 48 48 48 48 48 47 47 47 47 48 47 47
21 19 18 17 17 18 18 18 19 21 22 23 23 25 26 27 29 32 35 36 37 38 40 41 43 44 46 47 48 49 50 49 49 49 48 48 48 48 48 48 47 48 48 47
22 20 20 19 18 18 17 17 18 19 20 21 22 23 26 27 28 29 32 34 35 37 39 40 42 43 44 46 48 49 49 49 50 49 49 49 49 50 50 49 48 48 49 49
23 21 19 19 18 19 19 18 18 18 19 20 21 22 23 25 26 27 30 33 34 36 38 39 41 42 44 45 46 47 48 49 49 49 49 49 50 50 51 50 50 50 51 50
22 22 19 19 18 19 19 19 19 20 20 21 22 22 22 23 25 27 28 31 33 35 37 39 41 42 43 44 45 46 47 48 48 49 50 50 50 50 50 51 51 51 52 52
22 21 19 18 17 18 19 19 20 20 20 21 22 24 24 24 25 27 29 30 31 34 35 37 39 41 42 44 45 46 46 47 48 49 49 50 51 51 50 50 51 51 51 51
22 21 20 18 17 17 18 19 19 20 21 21 22 23 25 26 27 27 29 30 31 33 35 37 38 39 40 42 43 44 45 45 47 48 50 50 50 51 51 51 51 51 51 51
22 22 20 18 17 17 17 18 18 19 21 22 22 23 24 26 27 28 29 30 31 33 34 36 38 39 39 40 42 42 44 45 46 47 48 49 50 50 50 50 49 49 50 50
22 21 20 18 17 17 18 18 19 20 21 22 22 22 23 24 25 27 28 30 32 33 34 35 37 38 40 41 41 42 43 44 45 47 47 47 48 49 48 48 48 48 48 48
22 21 19 19 18 18 18 19 20 20 21 22 23 23 23 23 24 26 27 28 30 32 34 35 36 38 40 41 42 43 43 44 45 46 46 47 47 48 48 48 48 48 47 47
22 21 20 19 18 19 19 19 20 21 22 23 23 23 24 25 25 25 26 27 29 29 31 34 36 38 39 41 42 43 44 45 46 46 46 47 47 47 48 48 48 49 49 49
22 21 20 19 19 20 20 20 20 21 22 22 23 24 25 25 26 27 27 27 28 28 29 31 33 35 37 38 40 42 43 44 45 46 47 48 48 48 48 48 48 48 48 48
23 21 21 20 20 20 20 21 21 22 22 22 23 23 24 25 26 27 27 28 29 29 29 30 31 32 34 36 37 38 39 40 41 43 45 46 48 48 48 48 48 48 48 48
23 22 22 22 21 21 21 22 22 22 23 23 24 24 24 24 26 26 27 27 28 28 28 29 29 31 32 34 35 36 38 38 39 40 42 44 45 46 46 46 47 47 47 47
23 23 22 22 23 22 22 22 22 22 22 22 23 24 24 24 24 24 25 26 27 27 28 28 28 30 31 33 34 34 35 36 37 38 39 40 41 42 43 44 45 46 46 47
24 24 24 24 24 23 23 23 22 22 23 23 23 24 24 24 24 23 23 24 25 25 26 27 27 28 30 32 33 33 34 35 36 36 37 37 37 39 40 41 42 43 43 44
25 24 24 24 24 24 24 23 23 23 23 23 23 23 23 23 23 23 23 23 24 25 25 25 26 27 28 29 30 31 32 33 34 35 35 35 35 36 37 38 39 39 40 41
25 25 25 24 24 24 24 23 23 23 22 22 22 22 22 22 23 23 22 23 23 24 25 25 26 26 26 27 28 29 30 30 31 31 33 33 34 35 35 35 36 37 38 39
26 25 25 24 24 24 23 23 23 22 22 22 22 21 21 21 22 22 23 23 24 25 26 26 25 25 25 25 26 27 27 27 27 28 29 30 31 32 32 33 34 35 36 37
25 25 25 24 23 23 23 23 23 23 22 21 21 21 22 22 21 21 22 22 23 23 23 24 24 24 23 23 24 24 25 25 25 25 26 26 27 29 30 31 32 33 34 35
Wind_Direction
286 278 272 269 265 263 262 262 261 258 254 253 253 250 247 245 244 244 242 240 239 237 235 234 234 234 235 236 237 237 238 239 239 240 241 242 242 242 242 242 243 244 244 244
288 281 278 273 266 263 261 260 261 259 256 254 254 252 249 246 244 243 242 240 239 237 236 234 234 234 235 236 237 238 238 239 240 241 242 243 243 243 243 243 244 245 245 246
294 289 283 277 269 263 261 261 261 259 257 255 254 253 251 246 245 242 241 241 239 238 237 235 234 234 235 235 237 238 239 239 240 241 242 243 244 244 244 243 244 244 245 246
299 294 286 278 273 269 263 262 261 259 256 254 254 256 252 249 245 242 240 240 239 238 237 236 235 235 235 236 237 238 240 241 241 242 242 243 243 244 244 244 244 244 245 247
304 298 288 281 276 274 271 267 265 261 258 255 253 255 252 249 245 241 240 239 238 237 237 236 235 235 236 236 237 239 240 241 242 242 242 242 243 244 244 244 244 245 246 247
308 300 291 286 283 279 276 272 266 263 260 257 254 253 253 250 244 241 240 239 237 237 236 236 236 236 237 237 237 238 239 240 242 242 242 242 244 244 245 245 245 246 246 247
310 302 292 286 283 280 277 270 266 264 262 259 258 254 252 249 244 241 240 239 238 237 237 237 237 237 238 238 238 238 239 240 241 242 242 243 243 244 245 246 246 246 246 247
311 306 296 290 285 286 281 272 267 265 261 260 257 256 253 248 245 244 241 240 239 238 238 239 239 238 239 239 240 240 240 240 241 241 242 243 243 244 245 246 246 246 246 246
311 309 301 293 287 283 279 271 271 270 267 263 257 258 254 249 248 247 244 241 241 241 240 240 239 239 239 239 240 240 240 241 242 242 243 243 244 244 245 246 247 247 246 247
312 309 304 297 287 282 278 270 270 271 267 265 263 260 257 251 249 249 247 245 243 241 240 240 239 239 239 240 239 240 240 241 242 243 243 243 244 246 247 247 247 248 247 247
312 308 304 296 289 284 279 271 270 272 268 265 263 262 257 254 251 249 247 246 245 244 241 240 240 240 240 240 240 240 241 242 242 243 243 244 245 247 247 248 248 248 248 248
314 309 307 300 293 285 278 274 270 271 269 269 268 267 263 260 255 252 250 249 248 246 244 243 242 241 241 242 242 241 242 243 243 243 243 244 245 246 247 248 248 248 248 248
316 311 307 302 293 288 281 278 274 273 269 270 270 268 267 263 259 256 255 253 252 249 247 246 245 244 243 242 243 243 243 243 244 244 245 245 246 246 247 248 248 248 248 248
316 311 308 306 298 290 286 284 278 275 272 272 271 270 267 265 264 262 261 258 256 254 251 248 247 246 245 244 244 244 244 245 245 245 246 246 246 247 248 248 248 248 248 249
315 311 307 304 299 289 285 282 281 281 280 277 274 273 271 268 266 265 264 262 259 257 254 250 249 248 247 246 246 246 246 246 247 246 246 246 246 246 247 247 248 249 248 248
316 312 308 303 301 295 286 282 280 281 281 278 276 274 273 270 268 267 267 265 262 259 256 253 252 251 250 249 248 248 248 249 249 249 248 248 247 247 247 248 248 249 249 249
318 314 310 307 302 299 293 287 282 278 277 278 277 276 275 272 269 268 267 265 264 262 259 256 255 254 252 251 251 251 251 251 250 250 250 249 249 248 248 248 249 249 250 250
319 315 312 310 307 303 300 294 289 285 282 281 280 279 277 274 270 268 267 265 263 263 261 259 256 255 254 254 254 253 253 253 252 251 250 249 249 249 249 249 249 250 250 251
319 316 313 312 308 305 301 299 294 291 285 283 282 282 281 277 271 268 266 265 264 263 262 260 257 256 255 256 256 254 253 253 253 252 252 251 250 250 249 249 249 250 251 252
318 315 313 312 309 307 305 303 299 294 290 287 285 283 282 279 274 271 267 265 264 264 264 263 259 256 257 257 257 256 255 254 253 253 253 252 251 250 249 249 249 250 251 251
317 314 313 312 309 306 307 305 303 299 296 293 288 285 283 280 277 274 270 267 265 265 265 264 262 260 259 258 257 256 254 253 253 253 253 253 252 250 250 249 249 250 250 251
316 313 311 310 310 307 306 304 302 301 299 294 291 288 284 282 279 275 273 270 266 265 265 265 263 263 262 259 258 256 254 253 253 254 254 253 252 251 250 250 250 250 251 252
315 312 310 310 308 306 305 303 302 301 300 297 293 291 287 283 282 279 277 273 268 265 265 267 266 264 263 260 258 257 257 255 254 254 254 253 252 252 252 251 251 251 251 252
315 312 309 309 307 305 305 302 300 299 299 297 294 292 289 286 283 283 282 278 273 268 266 268 268 265 263 260 258 257 257 256 254 253 253 253 253 252 251 251 251 251 251 252
315 312 311 309 307 306 305 304 301 299 299 297 296 295 292 289 287 283 281 279 276 274 271 269 268 265 263 260 258 256 255 253 253 254 254 254 253 251 250 251 252 252 253 254
315 313 313 312 309 309 308 306 305 303 301 299 297 295 293 292 290 287 284 282 279 276 274 271 267 265 262 259 257 255 254 256 256 256 255 253 253 252 251 251 251 252 252 253
Height
5621 5621 5620 5621 5622 5624 5625 5626 5627 5630 5632 5634 5636 5639 5644 5647 5652 5657 5662 5668 5674 5680 5686 5692 5698 5703 5709 5713 5718 5722 5727 5731 5735 5739 5744 5748 5752 5756 5760 5764 5768 5771 5775 5778
5614 5613 5614 5613 5614 5615 5616 5617 5618 5620 5622 5624 5626 5629 5634 5638 5642 5647 5652 5657 5663 5669 5675 5681 5687 5693 5699 5704 5708 5712 5717 5721 5725 5730 5734 5739 5742 5746 5750 5754 5758 5762 5766 5769
5607 5607 5606 5605 5605 5606 5607 5608 5610 5612 5613 5615 5617 5620 5623 5628 5631 5636 5641 5647 5652 5658 5664 5671 5677 5683 5688 5693 5698 5703 5707 5711 5715 5720 5724 5729 5732 5736 5740 5745 5749 5752 5756 5760
5602 5601 5600 5598 5598 5599 5600 5601 5602 5603 5605 5606 5609 5610 5614 5617 5621 5626 5632 5637 5642 5648 5654 5660 5666 5672 5678 5683 5688 5692 5697 5701 5705 5710 5714 5719 5723 5727 5731 5735 5739 5742 5746 5750
5597 5596 5594 5593 5593 5593 5594 5594 5595 5596 5597 5599 5601 5602 5605 5607 5610 5616 5622 5627 5633 5638 5644 5650 5655 5661 5667 5672 5677 5682 5686 5691 5695 5700 5704 5708 5713 5717 5721 5725 5728 5732 5736 5740
5593 5591 5589 5589 5589 5588 5588 5589 5589 5589 5589 5590 5593 5594 5596 5599 5603 5608 5613 5618 5623 5628 5634 5639 5645 5651 5657 5662 5666 5671 5676 5680 5685 5690 5694 5698 5703 5707 5711 5714 5718 5722 5726 5730
5589 5587 5586 5585 5584 5584 5583 5583 5583 5582 5582 5583 5586 5587 5590 5592 5596 5599 5604 5609 5614 5619 5624 5630 5635 5641 5646 5651 5656 5661 5665 5670 5675 5679 5684 5688 5692 5696 5700 5704 5708 5712 5716 5719
5585 5583 5581 5580 5579 5578 5578 5578 5578 5577 5577 5579 5580 5580 5584 5587 5589 5592 5596 5601 5606 5611 5616 5621 5625 5630 5636 5641 5646 5650 5655 5659 5664 5668 5673 5677 5681 5685 5689 5693 5697 5701 5705 5708
5580 5579 5577 5576 5574 5574 5573 5573 5573 5573 5573 5573 5574 5576 5579 5581 5584 5586 5589 5593 5598 5602 5606 5611 5615 5620 5625 5630 5634 5639 5643 5648 5652 5657 5661 5666 5670 5674 5678 5682 5685 5689 5693 5696
5576 5575 5574 5572 5571 5570 5570 5569 5569 5569 5568 5568 5570 5571 5573 5575 5577 5580 5583 5586 5589 5593 5597 5601 5605 5609 5613 5618 5622 5626 5631 5636 5641 5645 5650 5654 5658 5662 5666 5670 5673 5677 5681 5685
5573 5571 5570 5568 5566 5565 5565 5565 5564 5564 5564 5564 5564 5568 5567 5569 5572 5574 5576 5579 5581 5585 5588 5591 5595 5599 5602 5606 5610 5614 5618 5623 5628 5633 5637 5641 5645 5649 5654 5657 5661 5665 5668 5672
5570 5567 5565 5564 5562 5560 5560 5560 5560 5560 5560 5560 5560 5564 5562 5563 5565 5567 5569 5571 5573 5576 5578 5582 5585 5589 5592 5596 5600 5603 5607 5611 5616 5620 5624 5629 5633 5637 5641 5645 5648 5652 5656 5660
5566 5563 5561 5559 5560 5557 5555 5555 5555 5555 5555 5555 5556 5559 5556 5558 5559 5561 5562 5564 5565 5567 5569 5572 5575 5579 5582 5585 5589 5593 5596 5600 5604 5608 5612 5616 5620 5625 5629 5632 5636 5639 5643 5647
5562 5560 5558 5556 5553 5552 5551 5551 5551 5550 5550 5550 5550 5551 5551 5551 5552 5554 5555 5556 5557 5559 5561 5563 5566 5569 5572 5575 5578 5582 5586 5589 5593 5596 5600 5604 5608 5612 5616 5620 5623 5627 5630 5634
5559 5557 5554 5552 5550 5549 5548 5547 5546 5546 5545 5545 5545 5545 5545 5546 5546 5547 5547 5548 5549 5551 5552 5554 5556 5559 5562 5565 5568 5571 5574 5578 5581 5584 5588 5591 5595 5599 5603 5607 5611 5614 5618 5621
5555 5553 5551 5549 5547 5545 5544 5543 5542 5541 5540 5540 5540 5540 5539 5539 5539 5539 5539 5540 5541 5542 5543 5545 5547 5549 5552 5554 5557 5560 5563 5566 5569 5572 5576 5579 5582 5586 5590 5594 5598 5602 5605 5608
5552 5549 5547 5545 5543 5541 5540 5539 5538 5537 5536 5535 5534 5535 5533 5533 5532 5532 5533 5533 5533 5533 5535 5536 5538 5539 5541 5544 5546 5549 5551 5554 5557 5560 5564 5567 5570 5574 5577 5581 5585 5588 5592 5595
5549 5545 5542 5541 5539 5537 5538 5534 5532 5531 5530 5529 5528 5527 5526 5526 5525 5525 5525 5525 5525 5526 5526 5527 5528 5529 5531 5533 5535 5537 5540 5542 5545 5548 5551 5554 5557 5561 5565 5568 5572 5575 5579 5582
5545 5541 5538 5536 5533 5532 5531 5529 5527 5525 5524 5523 5522 5520 5519 5519 5518 5518 5517 5517 5517 5517 5517 5518 5519 5520 5521 5523 5524 5526 5528 5530 5533 5536 5538 5541 5545 5548 5552 5556 5559 5563 5566 5569
5541 5538 5535 5531 5528 5527 5527 5524 5521 5520 5518 5517 5515 5514 5512 5511 5511 5512 5510 5509 5509 5509 5509 5509 5510 5511 5512 5513 5514 5515 5517 5519 5522 5524 5527 5529 5532 5535 5539 5543 5547 5550 5553 5556
5537 5534 5531 5527 5523 5522 5521 5518 5516 5515 5514 5510 5508 5507 5505 5504 5504 5503 5501 5501 5500 5500 5501 5501 5501 5501 5502 5503 5504 5505 5507 5509 5511 5513 5516 5518 5520 5524 5527 5531 5534 5537 5541 5544
5532 5528 5525 5522 5519 5519 5514 5512 5511 5509 5506 5503 5502 5500 5499 5497 5496 5495 5494 5493 5492 5492 5492 5492 5492 5492 5492 5493 5494 5496 5498 5499 5501 5503 5505 5507 5510 5513 5516 5519 5522 5525 5528 5532
5527 5524 5520 5518 5517 5512 5509 5506 5504 5502 5500 5497 5495 5493 5492 5491 5489 5488 5487 5486 5485 5485 5484 5484 5484 5484 5484 5484 5485 5487 5488 5489 5491 5493 5495 5497 5500 5502 5505 5508 5511 5514 5517 5520
5523 5519 5516 5513 5510 5507 5504 5501 5498 5496 5493 5491 5489 5487 5485 5484 5482 5481 5480 5479 5478 5477 5477 5476 5476 5476 5476 5476 5477 5478 5479 5480 5482 5484 5486 5488 5490 5492 5495 5497 5500 5503 5506 5508
5517 5513 5510 5507 5505 5501 5499 5495 5493 5490 5488 5485 5483 5481 5479 5477 5476 5474 5473 5472 5471 5470 5469 5469 5468 5468 5468 5468 5469 5469 5471 5472 5474 5475 5477 5479 5481 5483 5485 5488 5490 5492 5495 5497
5512 5509 5505 5502 5499 5496 5493 5490 5487 5484 5482 5479 5477 5475 5473 5471 5469 5467 5466 5465 5464 5462 5462 5461 5461 5461 5461 5461 5462 5463 5464 5465 5466 5468 5469 5471 5472 5474 5476 5479 5481 5482 5485 5487